Date String (YYYY-MM-DD hh:mm:ss) UTC,Instrument flags,Ambient pressure (hPa),Sample flow (lpm),Bypass flow (lpm),Sample temperature (°C),Ambient temperature (°C),ASC tube jacket temperature (°C),LED temperature (°C),Box temperature (°C),Sample RH (%),Span deviation,Mass concentration (μg/m³),Mass concentration (μg/m³),Mass concentration (μg/m³)
DateTimeUTC,F1_M11,P_M11,Q1_M11,Q2_M11,T1_M11,T2_M11,T3_M11,T4_M11,T5_M11,U1_M11,ZSPAN_M11,X0_M11,X2_M11,X1_M11
2022-08-07 10:00:00,,0827.4,5.01,0.00,30.2,28.6,00.0,38.9,31.9,34.5,0000.0,0013.95,0006.14,0005.00
2022-08-07 10:01:00,,0827.4,5.00,0.00,30.2,28.7,00.0,38.9,31.9,34.0,0000.0,0013.82,0006.08,0004.99
2022-08-07 10:02:00,,0827.4,4.99,0.00,30.3,28.7,00.0,38.9,31.9,33.2,0000.0,0013.51,0005.98,0004.95
2022-08-07 10:03:00,,0827.4,5.00,0.00,30.3,28.8,00.0,38.9,31.9,33.3,0000.0,0012.42,0005.92,0004.91
2022-08-07 10:04:00,,0827.4,5.01,0.00,30.3,28.8,00.0,38.9,31.9,32.8,0000.0,0012.37,0005.93,0004.89
2022-08-07 10:05:00,,0827.4,5.00,0.00,30.3,28.9,00.0,38.9,32.0,32.2,0000.0,0013.17,0005.89,0004.85
2022-08-07 10:06:00,,0827.4,5.00,0.00,30.3,28.9,00.0,39.0,32.0,32.2,0000.0,0013.40,0005.87,0004.82
2022-08-07 10:07:00,,0827.5,4.99,0.00,30.3,28.9,00.0,39.0,32.0,32.3,0000.0,0013.44,0005.83,0004.79
2022-08-07 10:08:00,,0827.5,5.00,0.00,30.3,29.0,00.0,39.0,32.0,31.9,0000.0,0014.05,0005.79,0004.75
2022-08-07 10:09:00,,0827.5,5.00,0.00,30.3,28.6,00.0,39.0,32.0,31.6,0000.0,0014.47,0005.74,0004.70
2022-08-07 10:10:00,,0827.5,5.01,0.00,30.3,27.9,00.0,38.9,31.8,31.4,0000.0,0014.30,0005.70,0004.66
2022-08-07 10:11:00,,0827.5,4.99,0.00,30.2,27.6,00.0,38.9,31.7,31.5,0000.0,0014.17,0005.67,0004.62
2022-08-07 10:12:00,,0827.6,5.01,0.00,30.1,27.6,00.0,38.9,31.6,31.4,0000.0,0014.19,0005.63,0004.57
2022-08-07 10:13:00,,0827.5,4.99,0.00,30.0,27.7,00.0,38.8,31.6,31.6,0000.0,0014.08,0005.56,0004.55
2022-08-07 10:14:00,,0827.6,5.01,0.00,30.0,27.8,00.0,38.8,31.6,31.5,0000.0,0014.04,0005.50,0004.52
2022-08-07 10:15:00,,0827.7,4.99,0.00,30.0,27.9,00.0,38.8,31.6,31.6,0000.0,0013.84,0005.43,0004.49
2022-08-07 10:16:00,,0827.7,5.01,0.00,30.0,28.0,00.0,38.8,31.7,31.9,0000.0,0012.94,0005.36,0004.47
2022-08-07 10:17:00,,0827.7,4.99,0.00,29.9,28.2,00.0,38.8,31.7,32.5,0000.0,0012.46,0005.30,0004.45
2022-08-07 10:18:00,,0827.8,5.00,0.00,29.9,28.3,00.0,38.8,31.7,32.9,0000.0,0012.11,0005.30,0004.43
2022-08-07 10:19:00,,0827.8,5.00,0.00,30.0,28.4,00.0,38.8,31.7,33.1,0000.0,0011.53,0005.28,0004.43
2022-08-07 10:20:00,,0827.8,5.00,0.00,30.0,28.4,00.0,38.8,31.8,33.4,0000.0,0011.20,0005.28,0004.45
2022-08-07 10:21:00,,0827.8,4.99,0.00,30.0,28.5,00.0,38.8,31.8,33.7,0000.0,0012.25,0005.32,0004.46
2022-08-07 10:22:00,,0827.8,5.00,0.00,30.0,28.6,00.0,38.8,31.8,33.7,0000.0,0013.64,0005.37,0004.48
2022-08-07 10:23:00,,0827.9,5.00,0.00,30.0,28.7,00.0,38.8,31.8,33.6,0000.0,0014.14,0005.43,0004.51
2022-08-07 10:24:00,,0827.9,5.00,0.00,30.0,28.7,00.0,38.8,31.9,33.6,0000.0,0014.36,0005.54,0004.54
2022-08-07 10:25:00,,0827.9,5.00,0.00,30.0,28.8,00.0,38.8,31.9,33.5,0000.0,0014.78,0005.63,0004.57
2022-08-07 10:26:00,,0827.9,5.00,0.00,30.0,28.8,00.0,38.8,31.9,33.5,0000.0,0015.53,0005.71,0004.59
2022-08-07 10:27:00,,0827.8,5.00,0.00,30.0,28.9,00.0,38.8,31.9,33.6,0000.0,0015.93,0005.81,0004.63
2022-08-07 10:28:00,,0827.9,5.01,0.00,30.1,28.9,00.0,38.8,31.9,33.9,0000.0,0016.48,0005.92,0004.66
2022-08-07 10:29:00,,0828.0,5.00,0.00,30.1,29.0,00.0,38.8,32.0,34.4,0000.0,0016.81,0005.98,0004.71
2022-08-07 10:30:00,,0827.8,5.00,0.00,30.1,29.0,00.0,38.8,32.0,34.3,0000.0,0016.48,0006.02,0004.75
2022-08-07 10:31:00,,0827.9,5.00,0.00,30.1,29.0,00.0,38.8,32.0,34.3,0000.0,0016.95,0006.11,0004.77
2022-08-07 10:32:00,,0828.0,5.00,0.00,30.1,29.1,00.0,38.9,32.0,34.3,0000.0,0016.32,0006.16,0004.80
2022-08-07 10:33:00,,0828.0,5.00,0.00,30.2,29.1,00.0,38.9,32.1,34.3,0000.0,0014.95,0006.12,0004.82
2022-08-07 10:34:00,,0828.0,4.99,0.00,30.2,29.1,00.0,38.9,32.1,34.3,0000.0,0014.59,0006.10,0004.84
2022-08-07 10:35:00,,0828.0,5.00,0.00,30.2,29.1,00.0,38.9,32.1,34.2,0000.0,0014.63,0006.13,0004.86
2022-08-07 10:36:00,,0828.0,5.01,0.00,30.2,28.5,00.0,38.9,31.9,34.2,0000.0,0014.45,0006.17,0004.88
2022-08-07 10:37:00,,0827.9,4.99,0.00,30.1,27.9,00.0,38.8,31.8,34.2,0000.0,0013.61,0006.13,0004.89
2022-08-07 10:38:00,,0828.0,5.00,0.00,30.1,27.7,00.0,38.8,31.7,34.2,0000.0,0013.08,0006.10,0004.89
2022-08-07 10:39:00,,0828.0,5.00,0.00,30.0,27.7,00.0,38.8,31.6,34.4,0000.0,0012.82,0006.08,0004.91
2022-08-07 10:40:00,,0827.9,5.00,0.00,29.9,27.8,00.0,38.8,31.6,34.3,0000.0,0012.97,0006.08,0004.91
2022-08-07 10:41:00,,0828.0,5.00,0.00,29.9,27.9,00.0,38.8,31.6,34.2,0000.0,0013.47,0006.11,0004.90
2022-08-07 10:42:00,,0828.0,4.99,0.00,29.9,28.0,00.0,38.7,31.7,34.2,0000.0,0013.66,0006.09,0004.89
2022-08-07 10:43:00,,0828.0,5.00,0.00,29.9,28.1,00.0,38.7,31.7,34.0,0000.0,0014.28,0006.05,0004.87
2022-08-07 10:44:00,,0828.0,5.01,0.00,29.9,28.3,00.0,38.7,31.7,34.0,0000.0,0015.71,0006.08,0004.85
2022-08-07 10:45:00,,0828.0,5.00,0.00,29.9,28.3,00.0,38.7,31.7,34.1,0000.0,0016.56,0006.11,0004.84
2022-08-07 10:46:00,,0828.1,5.00,0.00,29.9,28.4,00.0,38.7,31.8,34.0,0000.0,0017.49,0006.09,0004.82
2022-08-07 10:47:00,,0828.1,5.00,0.00,29.9,28.5,00.0,38.7,31.7,33.9,0000.0,0017.49,0006.08,0004.81
2022-08-07 10:48:00,,0828.1,4.99,0.00,29.9,28.6,00.0,38.7,31.7,33.7,0000.0,0017.91,0006.12,0004.81
2022-08-07 10:49:00,,0828.2,5.00,0.00,29.9,28.6,00.0,38.7,31.8,33.5,0000.0,0018.66,0006.12,0004.80
2022-08-07 10:50:00,,0828.2,5.00,0.00,29.9,28.7,00.0,38.7,31.8,33.4,0000.0,0019.14,0006.13,0004.78
2022-08-07 10:51:00,,0828.2,5.00,0.00,29.9,28.7,00.0,38.7,31.8,33.2,0000.0,0019.66,0006.14,0004.77
2022-08-07 10:52:00,,0828.3,5.00,0.00,29.9,28.7,00.0,38.7,31.9,32.9,0000.0,0019.34,0006.08,0004.75
2022-08-07 10:53:00,,0828.3,5.00,0.00,29.9,28.8,00.0,38.7,31.9,32.7,0000.0,0018.80,0006.05,0004.74
2022-08-07 10:54:00,,0828.2,5.00,0.00,29.9,28.8,00.0,38.7,31.9,32.6,0000.0,0017.88,0006.05,0004.74
2022-08-07 10:55:00,,0828.2,5.01,0.00,30.0,28.8,00.0,38.7,31.9,32.6,0000.0,0016.48,0006.06,0004.75
2022-08-07 10:56:00,,0828.3,5.00,0.00,30.0,28.8,00.0,38.7,31.9,32.7,0000.0,0015.62,0006.00,0004.74
2022-08-07 10:57:00,,0828.3,5.00,0.00,30.0,28.9,00.0,38.8,31.9,32.7,0000.0,0014.42,0005.93,0004.74
2022-08-07 10:58:00,,0828.3,5.00,0.00,30.0,28.9,00.0,38.8,31.9,32.7,0000.0,0014.55,0005.85,0004.72
2022-08-07 10:59:00,,0828.5,4.98,0.00,30.0,28.9,00.0,38.8,31.9,32.7,0000.0,0014.47,0005.81,0004.70
